| time (UTC) | temp C | wind direction | speed KPH | gust KPH | rain 1hr cm | rain 24hr cm | rain mn cm | humidity % | barometer mb |
| 20260903005502 | 20 | 308 | 3.2 | 16.1 | 0.00 | 0.00 | 0.00 | 66 | 1017.6 |
| 20260903005002 | 20 | 319 | 4.8 | 17.7 | 0.00 | 0.00 | 0.00 | 65 | 1017.6 |
| 20260903004502 | 20 | 327 | 4.8 | 17.7 | 0.00 | 0.00 | 0.00 | 65 | 1017.6 |
| 20260903004002 | 20 | 320 | 3.2 | 9.7 | 0.00 | 0.00 | 0.00 | 65 | 1017.6 |
| 20260903003502 | 20 | 316 | 3.2 | 14.5 | 0.00 | 0.00 | 0.00 | 66 | 1017.6 |
| 20260903003002 | 20 | 311 | 3.2 | 14.5 | 0.00 | 0.00 | 0.00 | 67 | 1017.6 |
| 20260903002504 | 20 | 288 | 3.2 | 12.9 | 0.00 | 0.00 | 0.00 | 67 | 1017.6 |
| 20260903002002 | 20 | 295 | 4.8 | 17.7 | 0.00 | 0.00 | 0.00 | 66 | 1017.6 |
| 20260903001502 | 21 | 308 | 3.2 | 17.7 | 0.00 | 0.00 | 0.00 | 65 | 1017.6 |
| 20260903001002 | 21 | 325 | 3.2 | 16.1 | 0.00 | 0.00 | 0.00 | 65 | 1017.6 |
| 20260903000502 | 21 | 323 | 4.8 | 16.1 | 0.00 | 0.00 | 0.00 | 66 | 1017.6 |
| 20260903000002 | 21 | 318 | 4.8 | 17.7 | 0.00 | 0.00 | 0.00 | 65 | 1017.6 |
| 20260902235502 | 21 | 306 | 4.8 | 17.7 | 0.00 | 0.00 | 0.00 | 65 | 1017.6 |
| 20260902235002 | 21 | 288 | 4.8 | 20.9 | 0.00 | 0.00 | 0.00 | 65 | 1017.6 |
| 20260902234502 | 21 | 299 | 4.8 | 20.9 | 0.00 | 0.00 | 0.00 | 65 | 1017.6 |
| 20260902234023 | 21 | 305 | 4.8 | 20.9 | 0.00 | 0.00 | 0.00 | 66 | 1017.6 |
| 20260902233502 | 21 | 283 | 4.8 | 14.5 | 0.00 | 0.00 | 0.00 | 66 | 1017.6 |
| 20260902233002 | 21 | 283 | 4.8 | 16.1 | 0.00 | 0.00 | 0.00 | 67 | 1017.6 |
| 20260902232502 | 21 | 274 | 6.4 | 17.7 | 0.00 | 0.00 | 0.00 | 68 | 1017.6 |
| 20260902232002 | 21 | 277 | 4.8 | 17.7 | 0.00 | 0.00 | 0.00 | 68 | 1017.6 |
| 20260902231502 | 21 | 288 | 4.8 | 16.1 | 0.00 | 0.00 | 0.00 | 69 | 1017.6 |
| 20260902231023 | 21 | 277 | 4.8 | 16.1 | 0.00 | 0.00 | 0.00 | 69 | 1017.6 |
| 20260902230502 | 21 | 299 | 3.2 | 12.9 | 0.00 | 0.00 | 0.00 | 68 | 1017.6 |
| 20260902230002 | 21 | 290 | 3.2 | 16.1 | 0.00 | 0.00 | 0.00 | 69 | 1017.6 |
| 20260902225502 | 21 | 312 | 4.8 | 17.7 | 0.00 | 0.00 | 0.00 | 70 | 1017.6 |
| 20260902225002 | 21 | 318 | 4.8 | 17.7 | 0.00 | 0.00 | 0.00 | 69 | 1017.6 |
| 20260902224502 | 21 | 270 | 4.8 | 12.9 | 0.00 | 0.00 | 0.00 | 70 | 1017.6 |
| 20260902224003 | 21 | 276 | 4.8 | 12.9 | 0.00 | 0.00 | 0.00 | 70 | 1017.6 |
| 20260902223502 | 21 | 295 | 4.8 | 12.9 | 0.00 | 0.00 | 0.00 | 70 | 1017.6 |
| 20260902223023 | 21 | 275 | 4.8 | 12.9 | 0.00 | 0.00 | 0.00 | 70 | 1017.6 |
| 20260902222502 | 21 | 278 | 3.2 | 12.9 | 0.00 | 0.00 | 0.00 | 70 | 1017.6 |
| 20260902222002 | 21 | 310 | 3.2 | 14.5 | 0.00 | 0.00 | 0.00 | 72 | 1017.6 |
| 20260902221502 | 20 | 279 | 4.8 | 17.7 | 0.00 | 0.00 | 0.00 | 72 | 1017.6 |
| 20260902221002 | 20 | 288 | 4.8 | 17.7 | 0.00 | 0.00 | 0.00 | 73 | 1017.6 |
| 20260902220502 | 20 | 312 | 3.2 | 14.5 | 0.00 | 0.00 | 0.00 | 73 | 1017.6 |
| 20260902220002 | 20 | 293 | 3.2 | 12.9 | 0.00 | 0.00 | 0.00 | 73 | 1017.6 |
| 20260902215502 | 20 | 278 | 4.8 | 11.3 | 0.00 | 0.00 | 0.00 | 73 | 1017.6 |
| 20260902215002 | 20 | 296 | 4.8 | 11.3 | 0.00 | 0.00 | 0.00 | 73 | 1017.6 |
| 20260902214523 | 20 | 299 | 3.2 | 11.3 | 0.00 | 0.00 | 0.00 | 74 | 1017.6 |
| 20260902214002 | 20 | 295 | 3.2 | 14.5 | 0.00 | 0.00 | 0.00 | 74 | 1017.6 |
| 20260902213502 | 20 | 304 | 3.2 | 14.5 | 0.00 | 0.00 | 0.00 | 74 | 1017.6 |
| 20260902213002 | 20 | 295 | 3.2 | 8.0 | 0.00 | 0.00 | 0.00 | 74 | 1017.6 |
| 20260902212523 | 20 | 294 | 3.2 | 16.1 | 0.00 | 0.00 | 0.00 | 75 | 1017.6 |
| 20260902212023 | 20 | 284 | 4.8 | 16.1 | 0.00 | 0.00 | 0.00 | 74 | 1017.6 |
| 20260902211502 | 20 | 267 | 4.8 | 16.1 | 0.00 | 0.00 | 0.00 | 74 | 1017.6 |
| 20260902211002 | 20 | 255 | 6.4 | 17.7 | 0.00 | 0.00 | 0.00 | 73 | 1017.6 |
| 20260902210502 | 20 | 270 | 4.8 | 17.7 | 0.00 | 0.00 | 0.00 | 74 | 1017.6 |
| 20260902210023 | 20 | 310 | 4.8 | 14.5 | 0.00 | 0.00 | 0.00 | 73 | 1017.6 |
| 20260902205502 | 20 | 319 | 4.8 | 12.9 | 0.00 | 0.00 | 0.00 | 73 | 1017.6 |
| 20260902205002 | 20 | 299 | 3.2 | 12.9 | 0.00 | 0.00 | 0.00 | 73 | 1017.6 |
| 20260902204502 | 21 | 268 | 3.2 | 12.9 | 0.00 | 0.00 | 0.00 | 72 | 1017.6 |
| 20260902204023 | 21 | 260 | 3.2 | 16.1 | 0.00 | 0.00 | 0.00 | 72 | 1017.6 |
| 20260902203523 | 21 | 279 | 3.2 | 16.1 | 0.00 | 0.00 | 0.00 | 73 | 1016.4 |
| 20260902203002 | 21 | 313 | 3.2 | 14.5 | 0.00 | 0.00 | 0.00 | 72 | 1016.4 |
| 20260902202502 | 21 | 316 | 3.2 | 14.5 | 0.00 | 0.00 | 0.00 | 72 | 1016.4 |
| 20260902202023 | 21 | 316 | 3.2 | 12.9 | 0.00 | 0.00 | 0.00 | 71 | 1016.4 |
| 20260902201502 | 21 | 327 | 3.2 | 19.3 | 0.00 | 0.00 | 0.00 | 70 | 1016.4 |
| 20260902201023 | 21 | 316 | 3.2 | 19.3 | 0.00 | 0.00 | 0.00 | 70 | 1016.4 |
| 20260902200502 | 21 | 303 | 4.8 | 16.1 | 0.00 | 0.00 | 0.00 | 69 | 1016.4 |
| 20260902200002 | 21 | 298 | 4.8 | 16.1 | 0.00 | 0.00 | 0.00 | 69 | 1016.4 |
| 20260902195503 | 21 | 276 | 4.8 | 16.1 | 0.00 | 0.00 | 0.00 | 69 | 1016.4 |
| 20260902195025 | 21 | 268 | 4.8 | 16.1 | 0.00 | 0.00 | 0.00 | 70 | 1016.4 |
| 20260902194523 | 21 | 263 | 4.8 | 14.5 | 0.00 | 0.00 | 0.00 | 71 | 1016.4 |
| 20260902194002 | 21 | 253 | 4.8 | 16.1 | 0.00 | 0.00 | 0.00 | 71 | 1016.4 |
| 20260902193502 | 21 | 248 | 6.4 | 16.1 | 0.00 | 0.00 | 0.00 | 70 | 1016.4 |
| 20260902193002 | 21 | 250 | 4.8 | 16.1 | 0.00 | 0.00 | 0.00 | 71 | 1016.4 |
| 20260902192502 | 20 | 251 | 4.8 | 14.5 | 0.00 | 0.00 | 0.00 | 72 | 1016.4 |
| 20260902192003 | 20 | 240 | 6.4 | 14.5 | 0.00 | 0.00 | 0.00 | 71 | 1016.4 |
| 20260902191502 | 20 | 225 | 6.4 | 16.1 | 0.00 | 0.00 | 0.00 | 70 | 1016.4 |
| 20260902191002 | 20 | 230 | 6.4 | 19.3 | 0.00 | 0.00 | 0.00 | 71 | 1016.4 |
| 20260902190502 | 20 | 248 | 6.4 | 19.3 | 0.00 | 0.00 | 0.00 | 72 | 1016.4 |
| 20260902190003 | 20 | 240 | 6.4 | 16.1 | 0.00 | 0.00 | 0.00 | 72 | 1016.4 |
| 20260902185502 | 20 | 238 | 4.8 | 12.9 | 0.00 | 0.00 | 0.00 | 73 | 1016.4 |
| 20260902185002 | 20 | 248 | 4.8 | 14.5 | 0.00 | 0.00 | 0.00 | 73 | 1016.4 |
| 20260902184502 | 19 | 253 | 4.8 | 14.5 | 0.00 | 0.00 | 0.00 | 74 | 1016.4 |
| 20260902184002 | 19 | 254 | 4.8 | 11.3 | 0.00 | 0.00 | 0.00 | 73 | 1016.4 |
| 20260902183502 | 19 | 268 | 3.2 | 11.3 | 0.00 | 0.00 | 0.00 | 73 | 1016.4 |
| 20260902183002 | 19 | 281 | 3.2 | 11.3 | 0.00 | 0.00 | 0.00 | 74 | 1016.4 |
| 20260902182502 | 19 | 262 | 3.2 | 11.3 | 0.00 | 0.00 | 0.00 | 73 | 1016.4 |
| 20260902182002 | 19 | 245 | 4.8 | 11.3 | 0.00 | 0.00 | 0.00 | 73 | 1016.4 |
| 20260902181502 | 19 | 232 | 3.2 | 9.7 | 0.00 | 0.00 | 0.00 | 72 | 1016.4 |
| 20260902181002 | 18 | 225 | 3.2 | 14.5 | 0.00 | 0.00 | 0.00 | 72 | 1016.4 |
| 20260902180502 | 18 | 220 | 4.8 | 14.5 | 0.00 | 0.00 | 0.00 | 73 | 1016.4 |
| 20260902180005 | 18 | 211 | 4.8 | 14.5 | 0.00 | 0.00 | 0.00 | 73 | 1016.4 |
| 20260902175523 | 18 | 215 | 4.8 | 14.5 | 0.00 | 0.00 | 0.00 | 73 | 1016.4 |
| 20260902175002 | 18 | 204 | 3.2 | 12.9 | 0.00 | 0.00 | 0.00 | 74 | 1016.4 |
| 20260902174523 | 18 | 191 | 3.2 | 12.9 | 0.00 | 0.00 | 0.00 | 74 | 1016.4 |
| 20260902174002 | 18 | 193 | 4.8 | 11.3 | 0.00 | 0.00 | 0.00 | 73 | 1016.4 |
| 20260902173523 | 18 | 192 | 4.8 | 14.5 | 0.00 | 0.00 | 0.00 | 74 | 1016.4 |
| 20260902173002 | 18 | 202 | 4.8 | 14.5 | 0.00 | 0.00 | 0.00 | 73 | 1016.4 |
| 20260902172502 | 18 | 197 | 6.4 | 12.9 | 0.00 | 0.00 | 0.00 | 73 | 1016.4 |
| 20260902172002 | 18 | 181 | 4.8 | 14.5 | 0.00 | 0.00 | 0.00 | 73 | 1016.4 |
| 20260902171502 | 18 | 184 | 6.4 | 14.5 | 0.00 | 0.00 | 0.00 | 73 | 1016.4 |
| 20260902171002 | 18 | 195 | 6.4 | 12.9 | 0.00 | 0.00 | 0.00 | 72 | 1016.4 |
| 20260902170502 | 18 | 189 | 6.4 | 12.9 | 0.00 | 0.00 | 0.00 | 71 | 1016.4 |
| 20260902170002 | 18 | 193 | 6.4 | 12.9 | 0.00 | 0.00 | 0.00 | 71 | 1016.4 |
| 20260902165502 | 18 | 204 | 4.8 | 12.9 | 0.00 | 0.00 | 0.00 | 71 | 1016.4 |
| 20260902165002 | 18 | 196 | 4.8 | 16.1 | 0.00 | 0.00 | 0.00 | 71 | 1016.4 |
| 20260902164502 | 18 | 195 | 4.8 | 16.1 | 0.00 | 0.00 | 0.00 | 71 | 1016.4 |
| 20260902164002 | 18 | 189 | 4.8 | 14.5 | 0.00 | 0.00 | 0.00 | 72 | 1016.4 |
| 20260902163523 | 18 | 180 | 4.8 | 14.5 | 0.00 | 0.00 | 0.00 | 72 | 1016.4 |
| 20260902163002 | 18 | 185 | 6.4 | 16.1 | 0.00 | 0.00 | 0.00 | 72 | 1016.4 |
| 20260902162502 | 18 | 195 | 6.4 | 16.1 | 0.00 | 0.00 | 0.00 | 72 | 1016.4 |
| 20260902162002 | 17 | 193 | 4.8 | 12.9 | 0.00 | 0.00 | 0.00 | 71 | 1016.4 |
| 20260902161502 | 17 | 179 | 6.4 | 12.9 | 0.00 | 0.00 | 0.00 | 72 | 1016.4 |
| 20260902161002 | 17 | 169 | 6.4 | 12.9 | 0.00 | 0.00 | 0.00 | 72 | 1016.4 |
| 20260902160502 | 17 | 170 | 6.4 | 16.1 | 0.00 | 0.00 | 0.00 | 72 | 1016.4 |
| 20260902160003 | 17 | 173 | 6.4 | 16.1 | 0.00 | 0.00 | 0.00 | 71 | 1016.4 |
| 20260902155502 | 17 | 168 | 6.4 | 14.5 | 0.00 | 0.00 | 0.00 | 71 | 1016.4 |
| 20260902155002 | 17 | 162 | 4.8 | 14.5 | 0.00 | 0.00 | 0.00 | 72 | 1016.4 |
| 20260902154502 | 16 | 160 | 3.2 | 11.3 | 0.00 | 0.00 | 0.00 | 73 | 1016.4 |
| 20260902154002 | 16 | 177 | 4.8 | 12.9 | 0.00 | 0.00 | 0.00 | 73 | 1016.4 |
| 20260902153502 | 16 | 191 | 4.8 | 12.9 | 0.00 | 0.00 | 0.00 | 74 | 1016.4 |
| 20260902153002 | 16 | 187 | 4.8 | 14.5 | 0.00 | 0.00 | 0.00 | 75 | 1016.4 |
| 20260902152502 | 15 | 183 | 3.2 | 14.5 | 0.00 | 0.00 | 0.00 | 76 | 1016.4 |
| 20260902152002 | 15 | 191 | 1.6 | 6.4 | 0.00 | 0.00 | 0.00 | 77 | 1016.4 |
| 20260902151502 | 15 | 199 | 3.2 | 9.7 | 0.00 | 0.00 | 0.00 | 77 | 1016.4 |
| 20260902151002 | 15 | 196 | 3.2 | 9.7 | 0.00 | 0.00 | 0.00 | 78 | 1016.4 |
| 20260902150502 | 15 | 188 | 3.2 | 9.7 | 0.00 | 0.00 | 0.00 | 78 | 1016.4 |
| 20260902150023 | 15 | 178 | 3.2 | 11.3 | 0.00 | 0.00 | 0.00 | 79 | 1016.4 |
| 20260902145502 | 15 | 170 | 4.8 | 11.3 | 0.00 | 0.00 | 0.00 | 79 | 1016.4 |
| 20260902145002 | 15 | 165 | 4.8 | 9.7 | 0.00 | 0.00 | 0.00 | 80 | 1016.4 |
| 20260902144523 | 15 | 163 | 3.2 | 11.3 | 0.00 | 0.00 | 0.00 | 81 | 1016.4 |
| 20260902144002 | 14 | 171 | 3.2 | 11.3 | 0.00 | 0.00 | 0.00 | 81 | 1016.4 |
| 20260902143502 | 14 | 172 | 3.2 | 9.7 | 0.00 | 0.00 | 0.00 | 81 | 1016.4 |
| 20260902143002 | 14 | 157 | 3.2 | 8.0 | 0.00 | 0.00 | 0.00 | 81 | 1016.4 |
| 20260902142502 | 14 | 150 | 3.2 | 14.5 | 0.00 | 0.00 | 0.00 | 81 | 1016.4 |
| 20260902142003 | 14 | 148 | 4.8 | 14.5 | 0.00 | 0.00 | 0.00 | 81 | 1016.4 |
| 20260902141502 | 13 | 144 | 3.2 | 9.7 | 0.00 | 0.00 | 0.00 | 81 | 1016.4 |
| 20260902141002 | 13 | 148 | 3.2 | 9.7 | 0.00 | 0.00 | 0.00 | 80 | 1016.4 |
| 20260902140502 | 13 | 156 | 1.6 | 6.4 | 0.00 | 0.00 | 0.00 | 81 | 1016.4 |
| 20260902140002 | 13 | 151 | 1.6 | 8.0 | 0.00 | 0.00 | 0.00 | 81 | 1016.4 |
| 20260902135502 | 13 | 139 | 3.2 | 8.0 | 0.00 | 0.00 | 0.00 | 81 | 1016.4 |
| 20260902135002 | 13 | 138 | 3.2 | 8.0 | 0.00 | 0.00 | 0.00 | 81 | 1016.4 |
| 20260902134502 | 13 | 144 | 3.2 | 6.4 | 0.00 | 0.00 | 0.00 | 81 | 1016.4 |
| 20260902134002 | 13 | 141 | 3.2 | 8.0 | 0.00 | 0.00 | 0.00 | 81 | 1016.4 |
| 20260902133502 | 13 | 138 | 3.2 | 8.0 | 0.00 | 0.00 | 0.00 | 81 | 1016.4 |
| 20260902133003 | 13 | 144 | 3.2 | 8.0 | 0.00 | 0.00 | 0.00 | 81 | 1016.4 |
| 20260902132523 | 13 | 152 | 3.2 | 8.0 | 0.00 | 0.00 | 0.00 | 80 | 1016.4 |
| 20260902132002 | 13 | 161 | 1.6 | 6.4 | 0.00 | 0.00 | 0.00 | 80 | 1016.4 |
| 20260902131502 | 13 | 154 | 1.6 | 8.0 | 0.00 | 0.00 | 0.00 | 81 | 1016.4 |
| 20260902131002 | 13 | 150 | 1.6 | 8.0 | 0.00 | 0.00 | 0.00 | 81 | 1016.4 |
| 20260902130502 | 14 | 154 | 1.6 | 11.3 | 0.00 | 0.00 | 0.00 | 81 | 1016.4 |
| 20260902130003 | 14 | 155 | 1.6 | 11.3 | 0.00 | 0.00 | 0.00 | 81 | 1016.4 |
| 20260902125502 | 14 | 153 | 1.6 | 6.4 | 0.00 | 0.00 | 0.00 | 81 | 1016.4 |
| 20260902125003 | 14 | 152 | 1.6 | 6.4 | 0.00 | 0.00 | 0.00 | 81 | 1016.4 |
| 20260902124502 | 14 | 154 | 1.6 | 8.0 | 0.00 | 0.00 | 0.00 | 81 | 1016.4 |
| 20260902124003 | 14 | 158 | 1.6 | 8.0 | 0.00 | 0.00 | 0.00 | 82 | 1016.4 |
| 20260902123503 | 14 | 157 | 1.6 | 8.0 | 0.00 | 0.00 | 0.00 | 82 | 1016.4 |
| 20260902123003 | 14 | 154 | 1.6 | 6.4 | 0.00 | 0.00 | 0.00 | 82 | 1016.4 |
| 20260902122524 | 13 | 155 | 1.6 | 6.4 | 0.00 | 0.00 | 0.00 | 82 | 1016.4 |
| 20260902122002 | 13 | 162 | 1.6 | 6.4 | 0.00 | 0.00 | 0.00 | 83 | 1016.4 |
| 20260902121502 | 13 | 170 | 1.6 | 8.0 | 0.00 | 0.00 | 0.00 | 83 | 1016.4 |
| 20260902121003 | 13 | 162 | 1.6 | 8.0 | 0.00 | 0.00 | 0.00 | 84 | 1016.4 |
| 20260902120502 | 13 | 150 | 1.6 | 8.0 | 0.00 | 0.00 | 0.00 | 85 | 1016.4 |
| 20260902120003 | 13 | 140 | 1.6 | 11.3 | 0.00 | 0.00 | 0.00 | 85 | 1016.4 |
| 20260902115503 | 13 | 142 | 1.6 | 11.3 | 0.00 | 0.00 | 0.00 | 85 | 1016.4 |
| 20260902115003 | 13 | 147 | 1.6 | 6.4 | 0.00 | 0.00 | 0.00 | 85 | 1016.4 |
| 20260902114502 | 13 | 149 | 1.6 | 6.4 | 0.00 | 0.00 | 0.00 | 86 | 1016.4 |
| 20260902114002 | 13 | 149 | 1.6 | 6.4 | 0.00 | 0.00 | 0.00 | 86 | 1016.4 |
| 20260902113503 | 13 | 150 | 1.6 | 4.8 | 0.00 | 0.00 | 0.00 | 86 | 1016.4 |
| 20260902113003 | 13 | 148 | 1.6 | 6.4 | 0.00 | 0.00 | 0.00 | 86 | 1016.4 |
| 20260902112502 | 13 | 146 | 1.6 | 6.4 | 0.00 | 0.00 | 0.00 | 86 | 1016.4 |
| 20260902112002 | 13 | 143 | 0.0 | 4.8 | 0.00 | 0.00 | 0.00 | 87 | 1016.4 |
| 20260902111503 | 13 | 144 | 0.0 | 4.8 | 0.00 | 0.00 | 0.00 | 86 | 1016.4 |
| 20260902111002 | 13 | 144 | 0.0 | 4.8 | 0.00 | 0.00 | 0.00 | 87 | 1016.4 |
| 20260902110502 | 13 | 144 | 0.0 | 3.2 | 0.00 | 0.00 | 0.00 | 87 | 1016.4 |
| 20260902110003 | 13 | 144 | 0.0 | 1.6 | 0.00 | 0.00 | 0.00 | 87 | 1014.4 |
| 20260902105503 | 13 | 146 | 0.0 | 4.8 | 0.00 | 0.00 | 0.00 | 87 | 1014.4 |
| 20260902105002 | 13 | 150 | 0.0 | 4.8 | 0.00 | 0.00 | 0.00 | 87 | 1014.4 |
| 20260902104524 | 13 | 157 | 0.0 | 3.2 | 0.00 | 0.00 | 0.00 | 87 | 1014.4 |
| 20260902104002 | 13 | 170 | 0.0 | 4.8 | 0.00 | 0.00 | 0.00 | 87 | 1014.4 |
| 20260902103503 | 13 | 178 | 0.0 | 4.8 | 0.00 | 0.00 | 0.00 | 88 | 1014.4 |
| 20260902103002 | 13 | 185 | 0.0 | 1.6 | 0.00 | 0.00 | 0.00 | 88 | 1014.4 |
| 20260902102502 | 13 | 187 | 0.0 | 1.6 | 0.00 | 0.00 | 0.00 | 88 | 1014.4 |
| 20260902102002 | 13 | 189 | 0.0 | 1.6 | 0.00 | 0.00 | 0.00 | 88 | 1014.4 |
| 20260902101503 | 13 | 197 | 0.0 | 3.2 | 0.00 | 0.00 | 0.00 | 88 | 1014.4 |
| 20260902101003 | 13 | 204 | 0.0 | 3.2 | 0.00 | 0.00 | 0.00 | 88 | 1014.4 |
| 20260902100502 | 13 | 211 | 0.0 | 1.6 | 0.00 | 0.00 | 0.00 | 89 | 1014.4 |
| 20260902100024 | 13 | 211 | 0.0 | 1.6 | 0.00 | 0.00 | 0.00 | 89 | 1014.4 |
| 20260902095503 | 13 | 211 | 0.0 | 1.6 | 0.00 | 0.00 | 0.00 | 89 | 1014.4 |
| 20260902095023 | 13 | 0 | 0.0 | 0.0 | 0.00 | 0.00 | 0.00 | 89 | 1014.4 |
| 20260902094502 | 13 | 0 | 0.0 | 0.0 | 0.00 | 0.00 | 0.00 | 89 | 1014.4 |
| 20260902094023 | 13 | 0 | 0.0 | 0.0 | 0.00 | 0.00 | 0.00 | 89 | 1014.4 |
| 20260902093502 | 13 | 0 | 0.0 | 0.0 | 0.00 | 0.00 | 0.00 | 89 | 1014.4 |
| 20260902093002 | 13 | 0 | 0.0 | 0.0 | 0.00 | 0.00 | 0.00 | 89 | 1014.4 |
| 20260902092503 | 13 | 0 | 0.0 | 0.0 | 0.00 | 0.00 | 0.00 | 89 | 1014.4 |
| 20260902092023 | 13 | 0 | 0.0 | 0.0 | 0.00 | 0.00 | 0.00 | 89 | 1014.4 |
| 20260902091503 | 13 | 0 | 0.0 | 0.0 | 0.00 | 0.00 | 0.00 | 89 | 1014.4 |
| 20260902091003 | 13 | 213 | 0.0 | 1.6 | 0.00 | 0.00 | 0.00 | 89 | 1014.4 |
| 20260902090503 | 13 | 213 | 0.0 | 1.6 | 0.00 | 0.00 | 0.00 | 89 | 1014.4 |
| 20260902090003 | 13 | 213 | 0.0 | 1.6 | 0.00 | 0.00 | 0.00 | 89 | 1014.4 |
| 20260902085503 | 13 | 213 | 0.0 | 1.6 | 0.00 | 0.00 | 0.00 | 89 | 1014.4 |
| 20260902085002 | 13 | 0 | 0.0 | 0.0 | 0.00 | 0.00 | 0.00 | 89 | 1014.4 |
| 20260902084503 | 13 | 0 | 0.0 | 0.0 | 0.00 | 0.00 | 0.00 | 89 | 1014.4 |
| 20260902084003 | 13 | 0 | 0.0 | 0.0 | 0.00 | 0.00 | 0.00 | 89 | 1014.4 |
| 20260902083523 | 13 | 213 | 0.0 | 1.6 | 0.00 | 0.00 | 0.00 | 89 | 1014.4 |
| 20260902083003 | 13 | 213 | 0.0 | 1.6 | 0.00 | 0.00 | 0.00 | 89 | 1014.4 |
| 20260902082502 | 13 | 0 | 0.0 | 0.0 | 0.00 | 0.00 | 0.00 | 89 | 1014.4 |
| 20260902082002 | 13 | 212 | 0.0 | 1.6 | 0.00 | 0.00 | 0.00 | 89 | 1014.4 |
| 20260902081503 | 13 | 205 | 0.0 | 3.2 | 0.00 | 0.00 | 0.00 | 90 | 1014.4 |
| 20260902081002 | 13 | 189 | 0.0 | 3.2 | 0.00 | 0.00 | 0.00 | 90 | 1014.4 |
| 20260902080502 | 13 | 170 | 0.0 | 3.2 | 0.00 | 0.00 | 0.00 | 90 | 1014.4 |
| 20260902080024 | 13 | 156 | 0.0 | 1.6 | 0.00 | 0.00 | 0.00 | 90 | 1014.4 |
| 20260902075503 | 13 | 156 | 0.0 | 3.2 | 0.00 | 0.00 | 0.00 | 89 | 1014.4 |
| 20260902075003 | 13 | 159 | 0.0 | 4.8 | 0.00 | 0.00 | 0.00 | 89 | 1014.4 |
| 20260902074524 | 13 | 177 | 0.0 | 4.8 | 0.00 | 0.00 | 0.00 | 89 | 1014.4 |
| 20260902074024 | 13 | 194 | 0.0 | 3.2 | 0.00 | 0.00 | 0.00 | 89 | 1014.4 |
| 20260902073503 | 13 | 195 | 0.0 | 3.2 | 0.00 | 0.00 | 0.00 | 89 | 1014.4 |
| 20260902073003 | 13 | 195 | 1.6 | 4.8 | 0.00 | 0.00 | 0.00 | 89 | 1014.4 |
| 20260902072502 | 13 | 197 | 1.6 | 4.8 | 0.00 | 0.00 | 0.00 | 89 | 1014.4 |
| 20260902072003 | 13 | 197 | 0.0 | 3.2 | 0.00 | 0.00 | 0.00 | 89 | 1014.4 |
| 20260902071502 | 13 | 198 | 0.0 | 1.6 | 0.00 | 0.00 | 0.00 | 89 | 1014.4 |
| 20260902071003 | 13 | 198 | 0.0 | 1.6 | 0.00 | 0.00 | 0.00 | 88 | 1014.4 |
| 20260902070524 | 13 | 198 | 0.0 | 1.6 | 0.00 | 0.00 | 0.00 | 88 | 1014.4 |
| 20260902070007 | 14 | 0 | 0.0 | 0.0 | 0.00 | 0.00 | 0.00 | 88 | 1014.4 |
| 20260902065502 | 14 | 0 | 0.0 | 0.0 | 0.00 | 0.00 | 0.00 | 88 | 1014.4 |
| 20260902065002 | 14 | 0 | 0.0 | 0.0 | 0.00 | 0.00 | 0.00 | 88 | 1014.4 |
| 20260902064503 | 14 | 0 | 0.0 | 0.0 | 0.00 | 0.00 | 0.00 | 88 | 1014.4 |
| 20260902064002 | 14 | 0 | 0.0 | 0.0 | 0.00 | 0.00 | 0.00 | 88 | 1014.4 |
| 20260902063503 | 14 | 0 | 0.0 | 0.0 | 0.00 | 0.00 | 0.00 | 88 | 1014.4 |
| 20260902063024 | 14 | 0 | 0.0 | 0.0 | 0.00 | 0.00 | 0.00 | 88 | 1014.4 |
| 20260902062502 | 14 | 198 | 0.0 | 1.6 | 0.00 | 0.00 | 0.00 | 88 | 1014.4 |
| 20260902062002 | 14 | 198 | 0.0 | 1.6 | 0.00 | 0.00 | 0.00 | 87 | 1014.4 |
| 20260902061502 | 14 | 0 | 0.0 | 0.0 | 0.00 | 0.00 | 0.00 | 87 | 1014.4 |
| 20260902061024 | 14 | 198 | 0.0 | 1.6 | 0.00 | 0.00 | 0.00 | 87 | 1014.4 |
| 20260902060503 | 14 | 198 | 0.0 | 3.2 | 0.00 | 0.00 | 0.00 | 87 | 1014.4 |
| 20260902060003 | 14 | 198 | 0.0 | 3.2 | 0.00 | 0.00 | 0.00 | 87 | 1014.4 |
| 20260902055503 | 14 | 0 | 0.0 | 0.0 | 0.00 | 0.00 | 0.00 | 87 | 1014.4 |
| 20260902055003 | 14 | 200 | 1.6 | 4.8 | 0.00 | 0.00 | 0.00 | 87 | 1014.4 |
| 20260902054524 | 14 | 201 | 1.6 | 4.8 | 0.00 | 0.00 | 0.00 | 87 | 1014.4 |
| 20260902054003 | 14 | 214 | 1.6 | 4.8 | 0.00 | 0.00 | 0.00 | 86 | 1014.4 |
| 20260902053503 | 14 | 222 | 1.6 | 4.8 | 0.00 | 0.00 | 0.00 | 86 | 1014.4 |
| 20260902053003 | 15 | 246 | 0.0 | 4.8 | 0.00 | 0.00 | 0.00 | 86 | 1014.4 |
| 20260902052503 | 15 | 251 | 0.0 | 3.2 | 0.00 | 0.00 | 0.00 | 86 | 1014.4 |
| 20260902052003 | 15 | 251 | 0.0 | 3.2 | 0.00 | 0.00 | 0.00 | 86 | 1014.4 |
| 20260902051503 | 15 | 252 | 0.0 | 6.4 | 0.00 | 0.00 | 0.00 | 86 | 1014.4 |
| 20260902051003 | 15 | 252 | 0.0 | 6.4 | 0.00 | 0.00 | 0.00 | 85 | 1014.4 |
| 20260902050502 | 15 | 250 | 0.0 | 1.6 | 0.00 | 0.00 | 0.00 | 85 | 1014.4 |
| 20260902050004 | 15 | 250 | 0.0 | 1.6 | 0.00 | 0.00 | 0.00 | 85 | 1014.4 |
| 20260902045503 | 15 | 250 | 0.0 | 1.6 | 0.00 | 0.00 | 0.00 | 85 | 1014.4 |
| 20260902045003 | 15 | 250 | 0.0 | 1.6 | 0.00 | 0.00 | 0.00 | 85 | 1014.4 |
| 20260902044503 | 15 | 250 | 0.0 | 1.6 | 0.00 | 0.00 | 0.00 | 85 | 1014.4 |
| 20260902044002 | 15 | 251 | 0.0 | 1.6 | 0.00 | 0.00 | 0.00 | 85 | 1014.4 |
| 20260902043503 | 15 | 254 | 0.0 | 3.2 | 0.00 | 0.00 | 0.00 | 85 | 1014.4 |
| 20260902043024 | 15 | 255 | 0.0 | 3.2 | 0.00 | 0.00 | 0.00 | 84 | 1014.4 |
| 20260902042524 | 15 | 255 | 0.0 | 1.6 | 0.00 | 0.00 | 0.00 | 85 | 1014.4 |
| 20260902042003 | 15 | 255 | 0.0 | 1.6 | 0.00 | 0.00 | 0.00 | 84 | 1014.4 |
| 20260902041524 | 15 | 255 | 1.6 | 4.8 | 0.00 | 0.00 | 0.00 | 84 | 1014.4 |
| 20260902041024 | 15 | 253 | 3.2 | 8.0 | 0.00 | 0.00 | 0.00 | 84 | 1014.4 |
| 20260902040503 | 15 | 249 | 3.2 | 8.0 | 0.00 | 0.00 | 0.00 | 84 | 1014.4 |
| 20260902040003 | 15 | 246 | 3.2 | 6.4 | 0.00 | 0.00 | 0.00 | 84 | 1014.4 |
| 20260902035503 | 15 | 249 | 3.2 | 11.3 | 0.00 | 0.00 | 0.00 | 83 | 1014.4 |
| 20260902035024 | 15 | 249 | 3.2 | 11.3 | 0.00 | 0.00 | 0.00 | 83 | 1014.4 |
| 20260902034502 | 15 | 245 | 3.2 | 8.0 | 0.00 | 0.00 | 0.00 | 82 | 1014.4 |
| 20260902034003 | 15 | 249 | 3.2 | 12.9 | 0.00 | 0.00 | 0.00 | 82 | 1014.4 |
| 20260902033503 | 15 | 259 | 3.2 | 12.9 | 0.00 | 0.00 | 0.00 | 82 | 1014.4 |
| 20260902033003 | 15 | 254 | 3.2 | 11.3 | 0.00 | 0.00 | 0.00 | 81 | 1014.4 |
| 20260902032503 | 15 | 249 | 3.2 | 11.3 | 0.00 | 0.00 | 0.00 | 81 | 1014.4 |
| 20260902032003 | 15 | 249 | 4.8 | 11.3 | 0.00 | 0.00 | 0.00 | 80 | 1014.4 |
| 20260902031503 | 15 | 251 | 4.8 | 11.3 | 0.00 | 0.00 | 0.00 | 80 | 1014.4 |
| 20260902031003 | 15 | 250 | 4.8 | 14.5 | 0.00 | 0.00 | 0.00 | 79 | 1014.4 |
| 20260902030503 | 15 | 253 | 4.8 | 14.5 | 0.00 | 0.00 | 0.00 | 79 | 1014.4 |
| 20260902030003 | 15 | 261 | 4.8 | 12.9 | 0.00 | 0.00 | 0.00 | 78 | 1014.4 |
| 20260902025503 | 15 | 259 | 6.4 | 16.1 | 0.00 | 0.00 | 0.00 | 78 | 1014.4 |
| 20260902025024 | 16 | 256 | 6.4 | 16.1 | 0.00 | 0.00 | 0.00 | 77 | 1014.4 |
| 20260902024503 | 16 | 255 | 6.4 | 14.5 | 0.00 | 0.00 | 0.00 | 76 | 1014.4 |
| 20260902024024 | 16 | 258 | 6.4 | 14.5 | 0.00 | 0.00 | 0.00 | 75 | 1014.4 |
| 20260902023503 | 16 | 266 | 4.8 | 14.5 | 0.00 | 0.00 | 0.00 | 74 | 1014.4 |
| 20260902023003 | 16 | 266 | 3.2 | 11.3 | 0.00 | 0.00 | 0.00 | 73 | 1014.4 |
| 20260902022503 | 16 | 261 | 3.2 | 12.9 | 0.00 | 0.00 | 0.00 | 72 | 1014.4 |
| 20260902022003 | 16 | 259 | 4.8 | 19.3 | 0.00 | 0.00 | 0.00 | 72 | 1014.4 |
| 20260902021503 | 16 | 261 | 6.4 | 19.3 | 0.00 | 0.00 | 0.00 | 71 | 1014.4 |
| 20260902021024 | 16 | 264 | 4.8 | 17.7 | 0.00 | 0.00 | 0.00 | 71 | 1014.4 |
| 20260902020503 | 16 | 256 | 6.4 | 16.1 | 0.00 | 0.00 | 0.00 | 70 | 1014.4 |
| 20260902020003 | 17 | 256 | 6.4 | 16.1 | 0.00 | 0.00 | 0.00 | 70 | 1014.4 |
| 20260902015503 | 17 | 261 | 4.8 | 14.5 | 0.00 | 0.00 | 0.00 | 69 | 1014.4 |
| 20260902015003 | 17 | 250 | 4.8 | 16.1 | 0.00 | 0.00 | 0.00 | 69 | 1014.4 |
| 20260902014503 | 17 | 254 | 6.4 | 16.1 | 0.00 | 0.00 | 0.00 | 69 | 1014.4 |
| 20260902014003 | 17 | 268 | 6.4 | 16.1 | 0.00 | 0.00 | 0.00 | 68 | 1014.4 |
| 20260902013503 | 17 | 262 | 6.4 | 16.1 | 0.00 | 0.00 | 0.00 | 67 | 1014.4 |
| 20260902013003 | 18 | 256 | 6.4 | 17.7 | 0.00 | 0.00 | 0.00 | 67 | 1014.4 |
| 20260902012524 | 18 | 258 | 6.4 | 17.7 | 0.00 | 0.00 | 0.00 | 66 | 1014.4 |
| 20260902012003 | 18 | 266 | 6.4 | 16.1 | 0.00 | 0.00 | 0.00 | 65 | 1014.4 |
| 20260902011503 | 18 | 269 | 4.8 | 14.5 | 0.00 | 0.00 | 0.00 | 65 | 1014.4 |
| 20260902011003 | 18 | 273 | 6.4 | 19.3 | 0.00 | 0.00 | 0.00 | 65 | 1014.4 |
| 20260902010503 | 18 | 271 | 4.8 | 19.3 | 0.00 | 0.00 | 0.00 | 64 | 1014.4 |
| 20260902010003 | 18 | 265 | 4.8 | 14.5 | 0.00 | 0.00 | 0.00 | 63 | 1014.4 |